Weather in Pervomayskoye

Russia / Primorsky Krai     44°00′04″N   131°58′54″E
temp.,
°C
wind,
m/s
gust,
m/s
humid.,
%
clouds,
%
prec.,
mm/h
press.,
hPa
HPBL,
m
13 june, sun
sun1301:00+16s228299 0.0 100822
04:00+16s3480100 0.0 100974
07:00+16ssw24845 0.0 1009118
10:00+23s22710 0.0 1009340
13:00+27s115513 0.0 1008614
16:00+29ese114614 0.0 1005853
19:00+23s51074100 0.1 1006363
22:00+17w2889100 3.4 1009248
14 june, mon
mon1401:00+16ene1190100 0.1 100818
04:00+16nw2289100 0.1 100819
07:00+17nnw018799 0.0 100842
10:00+21ssw22725 0.0 1008439
13:00+23ssw66671 0.0 1008738
16:00+22s79670 0.0 1006566
19:00+18s713820 0.0 1008495
22:00+13s7158919 0.0 1009444
15 june, tue
tue1501:00+12s71690100 0.0 1009484
04:00+12s71587100 0.0 1009571
07:00+12ssw6138775 0.0 1010520
10:00+16ssw81173100 0.0 1010719
13:00+19ssw81164100 0.0 1009864
16:00+18ssw91167100 0.0 1009689
19:00+15s81376100 0.0 1009499
22:00+12s71487100 0.0 1011455
16 june, wed
wed1601:00+11s61391100 0.0 1010411
04:00+11s5119399 0.0 1010417
07:00+12s51088100 0.0 1011418
10:00+17s687228 0.0 1010588
13:00+21s686170 0.0 1009752
16:00+21s79615 0.0 1008570
19:00+18s612720 0.0 1007402
22:00+12s614870 0.0 1009319
17 june, thu
thu1701:00+11s513950 0.0 1008304
04:00+10s410974 0.0 1007223
07:00+11s410912 0.0 1007278
10:00+17ssw71170100 0.0 1006602
13:00+20s9126039 0.0 1004820
16:00+20s91364100 0.0 1003725
19:00+16s81581100 0.0 1003565
22:00+14s71587100 0.0 1003575